Wind_Speed
11 11 10 9 7 6 6 6 6 6 6 6 5 5 5 6 7 8 9 9 9 8 6 5 6 6 7 7 6 6 5 4 3 3 4 4 5 5 5 4 3 2 2 1 2 3 4 4 5 6 7 8 9 9 9 9 9 9 9 8 8 8 8 9 9 9 9 9 8 6 4 4 4 5 6 7 9 10 11 12 13 13 13 14 15
11 10 8 6 5 5 5 5 5 5 5 5 5 6 6 7 8 9 9 9 9 8 6 5 5 6 6 5 4 3 2 2 3 4 5 6 6 7 6 5 4 3 3 3 4 4 5 6 6 7 7 8 8 8 8 8 8 8 8 8 8 8 9 9 10 10 10 10 10 9 7 6 6 6 6 8 9 11 12 14 15 15 16 17 17
9 7 5 5 5 4 4 5 6 5 5 5 5 6 6 7 8 9 10 10 8 8 6 5 4 5 5 4 3 2 1 2 3 3 4 5 6 6 6 5 4 3 3 4 4 5 6 6 7 7 7 7 7 6 6 7 7 7 8 8 8 8 9 9 9 10 10 10 10 10 9 8 7 7 8 9 10 11 13 14 16 17 19 19 20
6 5 4 3 3 4 4 5 6 5 5 5 6 6 6 7 8 9 10 10 9 7 5 5 4 5 4 3 2 1 1 2 2 3 3 4 4 4 4 4 4 4 4 4 5 6 6 6 6 6 6 6 5 6 6 6 7 7 7 7 8 8 8 9 9 9 9 9 9 9 9 9 9 8 9 10 11 12 13 15 16 17 20 20 21
4 3 3 2 3 3 4 5 5 4 5 5 5 5 6 6 7 8 10 10 9 6 4 4 4 5 4 3 3 2 2 2 2 2 2 2 3 3 4 4 4 4 5 5 5 6 6 6 6 5 5 5 5 5 6 6 7 7 8 8 9 9 9 10 10 10 10 10 10 10 10 10 10 10 11 11 12 13 14 15 16 17 19 20 20
4 3 2 1 2 3 4 4 4 4 4 4 4 4 5 6 7 8 8 8 6 4 3 2 3 5 4 4 3 3 4 3 3 3 3 3 3 4 4 4 5 5 5 5 5 5 5 5 5 5 5 4 5 6 6 7 8 9 10 10 11 11 11 12 12 12 12 12 12 12 12 12 13 13 13 14 14 15 16 16 18 18 19 20 19
3 2 1 1 1 2 3 3 3 4 4 4 4 4 4 6 8 8 6 4 3 3 3 2 3 4 5 6 6 6 6 6 5 5 4 5 5 5 5 6 6 6 6 5 4 4 3 3 3 3 3 4 5 6 7 8 10 11 12 12 13 13 13 13 14 14 14 14 14 14 14 14 14 15 15 15 16 16 17 18 19 19 20 20 19
2 1 1 0 0 1 2 3 3 3 3 3 3 4 4 5 8 9 5 2 3 3 2 3 3 4 5 7 7 8 8 8 7 6 6 6 6 7 7 7 7 7 7 6 5 4 4 3 3 3 3 4 6 7 9 10 11 12 13 14 15 15 15 15 15 15 15 15 15 15 15 15 15 16 16 16 16 17 18 18 19 19 20 19 18
2 2 1 1 0 1 2 2 3 3 3 3 3 4 4 5 7 7 5 3 2 2 1 3 3 3 4 5 7 7 7 7 7 7 7 7 7 8 8 8 8 8 7 6 5 5 5 5 5 5 5 6 6 7 9 10 11 12 13 14 15 16 16 15 15 14 14 14 14 14 15 15 16 17 17 18 18 19 19 19 19 18 19 18 17
2 2 2 2 1 1 1 2 2 3 3 3 3 4 5 6 7 6 5 3 1 0 0 1 2 2 3 4 5 5 4 5 5 6 6 7 7 7 8 8 8 7 7 6 6 6 6 6 6 6 6 6 6 6 8 10 11 12 13 14 15 15 15 15 15 15 15 15 15 15 15 15 16 17 18 18 19 19 19 19 17 17 17 17 15
2 1 1 2 2 1 0 1 2 3 3 3 3 4 4 5 7 6 4 3 2 1 2 1 2 2 2 3 4 3 3 3 4 5 6 7 7 7 7 8 8 8 7 7 6 6 6 6 6 5 6 5 5 6 8 9 10 11 12 14 15 15 15 15 16 16 17 16 16 16 16 16 17 18 18 18 18 18 18 16 15 14 14 15 14
2 2 1 2 2 1 0 1 2 2 3 3 4 4 5 6 7 7 5 3 2 1 3 2 2 2 0 2 2 2 3 4 5 5 6 7 7 8 8 9 9 9 8 6 6 6 6 6 5 5 5 6 6 6 7 9 10 12 13 14 15 16 16 16 17 17 17 17 17 18 17 17 18 18 19 19 18 19 17 15 14 13 11 12 13
4 3 2 2 3 2 0 1 2 2 2 3 4 4 5 6 6 6 5 4 2 1 1 1 1 1 0 2 2 3 4 5 5 6 7 8 8 8 8 8 8 8 7 6 5 6 5 6 6 6 6 6 6 6 7 8 10 12 13 15 16 16 17 17 18 17 17 18 18 18 18 18 18 18 19 19 19 19 18 16 15 14 10 10 11
5 4 3 4 3 2 1 1 1 2 3 3 3 4 4 5 5 5 5 5 4 3 1 1 0 0 1 2 3 4 5 5 5 5 6 7 8 8 7 7 7 6 6 6 7 7 7 7 7 7 8 8 8 8 8 8 10 12 13 15 16 17 17 18 19 18 18 18 19 19 19 18 17 16 18 19 18 19 20 19 17 15 11 8 10
6 5 4 4 4 3 2 2 2 2 3 3 2 3 3 4 5 5 5 5 5 4 1 1 1 0 1 2 2 3 3 3 4 4 4 7 7 6 5 5 6 7 8 9 10 10 9 9 9 9 10 11 11 11 11 10 11 13 14 15 17 17 17 18 19 18 18 19 19 20 19 17 16 15 16 18 18 18 20 20 18 16 12 9 9
7 6 5 5 4 4 3 3 2 3 3 2 1 2 2 4 6 6 5 5 5 5 3 1 1 1 1 1 0 1 1 3 6 4 4 6 5 3 3 5 7 8 9 10 11 10 8 8 9 9 10 11 12 13 13 13 13 13 14 15 17 17 18 18 19 19 19 19 19 19 17 15 13 13 13 16 17 17 19 21 19 16 11 9 10
8 7 6 5 5 5 4 3 2 3 2 1 1 1 2 3 5 6 6 6 5 5 5 3 1 1 1 0 0 1 1 3 5 3 3 5 3 3 2 3 5 5 6 7 9 8 5 5 7 8 9 10 11 12 13 13 13 12 13 15 16 17 17 17 18 19 19 19 20 19 17 13 11 11 12 13 16 16 18 20 19 16 12 10 11
9 8 7 6 5 5 5 4 3 2 2 1 1 0 1 2 4 5 6 7 5 4 4 5 4 3 3 1 1 1 1 2 2 2 4 4 4 3 2 5 5 3 4 6 7 7 4 5 6 7 8 9 9 11 12 13 12 11 13 14 16 16 15 16 18 18 18 19 21 21 18 14 11 10 11 12 13 15 16 19 19 16 12 11 11
11 10 8 7 6 5 5 5 4 3 2 2 1 1 1 1 3 4 5 6 5 4 5 4 4 4 5 4 2 1 2 1 0 1 3 2 4 3 2 5 5 3 6 7 7 7 5 6 7 8 8 8 8 10 12 12 12 12 13 15 16 15 14 15 17 17 18 19 21 20 19 18 15 13 13 12 12 13 15 17 18 17 13 11 11
11 11 10 8 7 6 5 5 5 4 3 2 1 1 2 1 2 2 3 4 4 5 6 5 4 4 6 6 5 2 1 2 1 1 0 1 4 4 5 8 6 4 7 8 8 7 6 8 9 8 7 8 9 11 11 11 12 13 14 14 15 13 13 15 16 16 17 20 20 19 19 20 18 16 15 14 13 13 14 15 17 17 14 12 11
10 11 11 9 7 6 6 6 5 5 5 4 2 2 2 2 1 1 1 3 4 4 5 5 5 5 6 6 5 4 2 2 2 1 1 0 2 2 6 10 8 7 8 9 10 8 7 9 8 8 8 9 10 10 10 11 12 13 13 14 13 12 13 15 16 15 17 20 19 18 19 20 20 18 16 15 14 12 13 14 16 16 15 12 11
11 11 10 9 8 7 7 8 6 6 6 5 4 3 3 3 2 2 2 2 3 3 3 4 4 4 5 5 5 5 3 2 2 2 2 1 1 2 5 7 7 8 10 11 11 9 8 8 8 8 9 10 10 10 10 11 12 12 12 12 11 11 13 14 16 14 15 20 19 17 20 22 23 20 16 14 13 12 12 14 15 15 15 13 11
12 11 10 9 8 7 8 8 8 7 6 5 5 4 3 4 3 3 2 2 2 2 2 2 2 3 4 4 4 4 3 3 4 4 3 2 2 3 5 6 6 8 10 12 11 9 9 9 8 9 10 10 11 11 12 12 11 11 11 11 11 12 13 15 16 15 15 18 18 17 20 23 23 20 17 14 13 13 13 13 14 14 14 13 11
13 13 11 10 9 8 8 8 8 8 7 5 5 4 4 4 4 4 3 3 3 2 2 1 2 2 4 4 3 3 3 3 4 5 5 4 2 3 5 6 5 7 10 12 11 10 11 10 8 10 11 11 11 12 12 12 11 11 11 11 12 13 15 16 17 17 16 16 16 16 19 22 21 17 16 16 16 16 15 13 13 12 12 12 11
15 14 12 11 10 9 8 8 8 9 7 6 5 4 4 4 4 4 4 4 4 3 2 1 1 2 3 3 3 2 3 4 5 6 5 4 3 3 4 4 4 6 9 10 10 9 10 11 9 11 13 12 12 12 12 12 11 11 11 12 13 14 16 17 17 17 15 14 14 15 18 20 17 15 16 17 17 16 15 13 12 11 11 11 10
15 14 12 11 11 10 9 9 9 9 9 8 6 6 6 5 5 6 5 5 5 4 3 2 2 2 2 3 3 3 3 4 5 6 5 4 4 4 4 4 4 5 7 8 9 8 8 10 10 11 14 14 14 13 13 13 12 12 12 12 13 14 15 16 16 16 15 14 14 15 17 18 16 14 16 18 17 16 14 13 12 9 9 10 10
14 13 12 12 12 11 10 10 9 9 9 9 8 7 7 6 7 7 6 6 6 5 4 4 3 3 3 3 4 4 4 4 4 5 5 5 5 4 3 3 3 4 5 7 8 7 7 11 11 11 15 15 15 15 15 15 14 13 13 12 13 13 14 15 15 16 16 16 16 16 16 16 15 15 17 17 17 14 12 12 11 8 7 9 9
15 14 13 13 13 12 11 11 10 9 9 9 9 8 8 8 8 8 8 7 7 6 5 5 4 4 4 4 5 5 4 4 4 4 4 5 5 5 4 2 1 2 3 3 5 5 7 11 11 12 16 16 15 17 17 16 14 13 13 13 13 14 15 16 16 17 18 18 17 16 15 16 16 16 16 16 15 12 10 10 10 7 6 7 8
16 14 14 14 13 12 12 11 10 10 10 10 10 10 10 10 10 10 9 9 8 8 7 6 5 5 5 6 6 5 4 4 3 3 3 4 4 4 5 4 2 1 1 1 2 3 6 10 10 11 16 16 15 17 17 14 13 13 13 14 15 16 17 18 18 19 20 18 16 15 15 16 16 16 15 14 13 11 9 9 9 8 5 5 7
16 15 15 14 13 13 12 12 11 11 10 10 11 11 11 11 11 11 10 9 9 8 7 6 6 6 6 7 6 6 4 3 3 3 3 3 4 4 4 5 4 4 3 2 2 3 6 11 11 12 15 15 15 17 15 12 12 13 15 16 17 19 19 19 21 21 20 18 16 16 15 15 15 14 13 12 11 10 9 9 9 9 5 4 6
15 15 14 14 14 14 13 13 12 12 11 11 11 10 10 10 11 11 10 8 8 8 7 7 7 7 7 7 6 6 5 3 3 3 3 4 5 5 5 5 6 6 6 5 2 4 8 11 11 11 13 14 14 15 13 10 11 14 16 18 19 20 20 20 21 20 18 17 16 15 14 13 14 14 13 13 11 10 9 9 9 8 6 5 6
15 14 14 14 14 14 14 14 13 12 12 11 11 11 10 11 10 10 10 9 9 9 8 7 7 7 7 7 7 6 5 4 3 4 4 5 6 6 6 7 6 6 8 7 5 7 12 12 11 11 11 12 13 14 12 9 11 13 16 18 19 19 20 20 18 16 15 15 14 13 13 14 14 15 16 15 14 12 10 9 9 7 6 7 7
15 14 14 14 14 14 14 14 13 13 12 12 12 12 12 11 11 10 10 10 10 10 9 8 7 7 7 7 7 7 6 5 5 5 6 6 6 6 6 7 8 7 8 8 8 9 12 12 11 10 10 11 12 12 11 11 12 14 16 17 18 18 19 17 15 14 14 14 13 13 13 15 16 16 16 16 15 14 12 10 8 7 9 9 8
15 14 14 13 14 14 14 14 14 13 13 13 12 12 12 12 12 11 11 11 11 11 10 10 9 7 8 8 7 7 7 7 7 7 8 8 8 8 7 7 8 8 8 9 9 9 11 12 11 10 10 11 13 11 11 13 15 15 16 17 18 18 17 14 13 14 14 14 14 14 14 15 17 17 17 17 16 15 14 13 11 10 10 10 9
14 14 13 14 14 15 15 15 15 14 14 13 13 13 13 13 13 12 12 11 11 11 11 11 10 9 9 9 8 8 8 9 8 8 9 9 9 9 9 8 9 8 7 8 9 9 10 12 11 10 11 12 13 12 12 13 14 15 15 16 18 17 15 13 13 14 14 14 15 15 15 16 17 17 17 17 16 15 14 14 13 13 11 9 9
15 15 14 15 15 15 15 15 15 15 15 14 14 14 14 14 14 13 12 12 11 11 11 11 11 10 11 11 10 9 9 10 9 9 9 10 10 10 10 10 9 9 8 8 8 9 10 11 11 11 12 13 13 12 12 14 14 13 13 15 17 17 14 12 12 13 14 13 15 16 16 16 17 16 16 16 16 16 15 14 13 12 11 9 8
16 16 16 16 16 16 16 15 15 16 15 15 15 15 15 15 15 14 14 13 12 12 12 12 12 12 12 12 11 11 11 12 11 11 10 10 10 10 10 10 10 9 8 8 8 8 10 12 12 11 12 12 12 11 12 14 14 12 13 15 17 16 14 12 12 14 13 12 14 16 17 17 16 15 15 16 16 17 17 16 14 11 9 9 8
17 17 17 17 18 17 17 16 16 16 16 16 17 17 16 16 16 16 15 15 14 13 13 13 13 13 13 13 13 13 13 13 13 13 12 11 11 11 12 11 10 9 8 8 8 9 10 11 10 10 11 11 11 11 11 12 12 13 15 17 16 15 14 12 13 15 14 13 15 17 18 17 17 16 17 18 18 18 18 18 17 14 11 9 8
19 19 19 19 19 19 19 18 18 18 18 18 19 19 18 18 18 18 17 16 15 15 14 14 13 13 13 13 14 14 14 14 14 14 13 13 12 12 12 12 11 9 9 9 9 9 9 9 9 9 10 10 9 10 10 9 10 12 15 18 17 15 13 12 13 16 15 13 15 18 18 18 18 18 20 21 21 21 21 21 20 19 17 14 11
20 20 20 20 20 20 21 20 20 19 19 20 20 20 20 20 20 20 19 18 17 16 16 15 14 14 14 14 15 15 15 15 14 13 13 13 12 11 11 10 10 10 10 10 9 8 8 8 9 9 9 8 8 9 9 10 11 12 14 15 15 14 12 10 12 15 14 13 16 18 19 19 20 20 22 24 25 24 23 23 22 21 20 18 15
19 18 18 18 19 20 20 20 19 19 20 20 21 21 22 22 22 21 20 19 18 18 17 17 16 16 16 15 15 14 14 14 14 13 12 12 12 11 10 9 10 10 10 9 8 8 8 9 9 8 7 7 7 7 8 8 10 11 12 13 12 12 11 8 9 12 12 12 14 17 18 18 20 22 23 25 27 26 25 24 23 21 19 18 17
19 17 16 16 17 18 18 19 19 19 20 20 20 21 22 23 23 22 21 21 20 19 19 19 19 19 18 17 15 14 14 14 14 13 13 12 12 12 11 11 10 10 10 10 10 10 10 9 8 6 6 6 6 5 5 6 8 10 11 12 12 11 11 8 7 9 12 11 12 16 18 16 17 20 22 24 25 26 26 25 23 20 18 17 16
19 16 15 15 15 14 15 15 16 17 18 19 20 21 22 22 23 22 22 22 21 21 20 21 21 21 20 19 17 16 15 15 14 13 13 13 13 13 13 12 12 11 11 11 12 12 11 9 8 6 6 6 6 4 4 6 8 10 11 10 10 10 9 7 4 6 11 11 10 13 16 15 14 17 20 21 22 24 25 24 22 19 18 17 16
19 17 15 14 13 13 13 13 13 13 14 15 16 18 20 20 21 21 22 22 23 22 22 21 21 22 21 20 19 18 17 16 15 14 13 13 13 13 14 13 13 13 12 12 12 12 11 10 8 7 7 7 7 5 4 6 9 11 11 10 10 8 6 4 3 5 9 10 9 11 13 14 12 15 18 20 20 21 21 21 21 19 18 17 17
13 11 10 9 10 11 11 11 12 12 12 13 13 13 16 18 19 20 21 21 22 22 22 22 22 22 22 22 21 20 18 17 17 15 13 12 12 13 14 14 13 12 13 13 13 13 12 11 10 9 8 8 8 7 6 7 9 11 11 11 11 8 5 2 2 5 8 9 9 10 11 12 11 13 17 18 18 19 19 20 21 19 17 17 18
7 8 10 12 11 11 10 10 10 10 10 11 12 12 13 16 18 19 20 20 21 21 22 22 22 22 22 22 23 23 21 20 19 17 14 13 13 13 14 14 12 12 13 13 14 14 13 12 12 11 10 9 9 8 7 7 8 10 11 12 11 6 1 1 3 5 7 9 9 8 8 10 10 13 16 17 17 18 20 20 20 18 17 18 19
10 14 16 15 9 6 6 6 8 10 11 11 12 13 14 15 16 17 18 19 19 20 21 20 20 21 20 20 22 24 24 22 21 19 17 15 14 14 13 12 12 12 12 12 13 13 12 12 12 11 10 9 9 9 8 7 8 9 10 9 6 2 3 4 5 4 6 9 9 6 6 8 9 11 14 15 15 17 20 19 18 18 18 19 19
4 7 9 8 7 7 9 9 9 11 13 13 13 14 14 15 15 15 16 17 17 18 20 20 20 21 22 21 21 22 24 23 21 19 18 17 16 14 13 11 11 12 11 11 11 10 10 10 10 10 9 9 9 9 8 7 7 7 6 3 3 5 6 6 6 5 6 8 7 6 7 8 9 9 11 14 15 16 18 18 17 17 19 20 19
6 9 10 9 10 12 14 15 14 14 14 14 14 14 14 14 14 14 15 15 16 17 19 20 20 21 23 24 23 23 23 23 22 20 19 18 17 14 12 11 11 12 12 11 10 9 9 9 9 9 9 9 9 9 7 5 4 4 3 5 6 6 6 5 4 5 6 7 6 6 7 8 9 7 7 10 14 17 17 16 15 14 16 19 19
8 12 13 11 8 7 8 10 12 12 13 14 14 15 15 16 16 17 17 19 20 21 22 23 23 24 24 24 23 23 24 24 24 23 22 20 18 15 13 12 12 13 13 12 11 10 9 9 9 9 9 9 9 8 7 6 5 4 5 6 6 6 5 4 3 4 6 7 6 5 6 7 9 8 6 5 9 14 15 14 14 13 13 16 18
3 7 9 7 5 5 5 6 7 8 10 11 13 14 15 16 18 19 20 22 24 26 27 27 28 28 29 27 22 21 24 26 25 23 22 21 18 15 14 13 12 12 12 12 11 10 10 10 9 9 9 8 8 8 8 7 6 5 5 5 5 4 4 5 4 5 4 5 5 4 5 8 9 10 7 3 3 7 11 13 15 14 13 14 15
Wind_Direction
128 124 119 109 95 80 63 52 43 35 38 39 35 31 20 11 5 359 358 355 354 347 328 306 295 293 294 293 298 310 318 329 359 21 33 45 57 61 64 71 75 72 57 25 4 347 336 334 334 335 336 337 335 330 326 329 332 331 333 335 337 340 345 352 355 357 4 9 12 12 4 351 336 327 324 323 324 325 324 321 320 317 313 312 311
128 125 118 102 86 72 57 49 43 44 49 46 37 27 16 9 1 354 350 348 347 339 323 309 299 293 294 297 305 316 325 5 32 44 55 60 61 63 61 59 56 40 22 10 4 358 352 350 349 348 347 347 347 348 350 354 356 354 356 359 360 0 3 5 6 7 10 11 11 11 11 9 1 350 338 331 326 323 321 318 317 314 311 311 309
131 125 112 95 80 67 57 52 49 54 51 40 30 18 9 1 352 349 345 340 337 326 313 305 292 283 287 298 309 314 2 35 42 47 56 59 59 61 54 46 38 25 16 9 5 2 358 357 356 356 356 357 1 5 11 13 12 10 7 8 8 7 9 9 8 9 10 10 7 3 1 357 350 341 330 323 316 312 310 310 311 309 308 308 308
127 118 102 85 73 65 64 59 51 45 37 30 22 8 0 355 348 343 337 331 327 318 308 299 280 270 273 291 307 313 1 14 29 34 43 50 47 48 42 32 20 11 6 7 8 7 6 7 6 7 9 10 14 17 19 19 15 11 7 6 6 5 4 4 3 1 2 3 1 357 353 347 341 332 324 318 312 309 306 306 307 306 308 308 309
123 113 99 80 65 65 66 60 49 36 28 25 18 4 354 350 341 334 327 321 319 318 316 301 275 263 261 275 296 308 322 341 1 0 359 10 14 15 15 8 4 0 0 3 6 11 13 14 16 17 18 19 17 16 13 11 6 2 358 357 356 356 354 354 353 351 350 349 348 346 343 339 336 330 325 319 315 313 309 309 307 307 308 306 306
127 119 103 85 64 65 64 54 43 29 24 21 10 359 352 342 334 332 325 315 311 315 319 297 262 260 262 274 289 302 306 315 322 323 330 333 334 342 347 346 348 352 356 0 2 8 15 19 23 22 20 17 12 7 2 359 356 352 350 347 346 346 345 345 345 343 342 340 338 336 334 332 329 326 323 319 318 315 312 311 308 308 307 304 303
139 132 111 91 73 70 64 47 35 19 11 4 351 349 349 342 339 338 333 326 326 321 301 268 260 267 273 281 290 296 296 300 302 303 312 317 320 325 331 337 341 345 348 351 351 352 354 1 14 17 16 9 2 357 354 351 349 347 345 343 342 342 342 341 340 339 338 337 335 333 331 329 326 324 322 319 317 314 313 311 310 309 306 304 303
178 187 227 217 99 67 59 41 24 11 0 347 339 344 346 346 344 341 350 12 346 331 293 262 270 279 283 287 291 292 291 291 289 292 300 305 315 322 327 333 335 338 340 340 338 332 325 319 320 331 335 339 344 345 346 346 346 347 346 345 345 345 345 345 343 340 337 337 335 333 331 329 327 325 323 321 319 316 315 313 312 310 306 307 304
208 218 212 202 207 55 53 39 20 13 11 356 352 355 351 354 351 348 10 33 339 333 302 258 267 302 306 300 298 295 293 290 286 291 295 303 316 325 332 334 333 335 333 330 331 331 326 316 311 313 315 320 329 335 339 344 347 349 350 350 350 351 352 351 350 347 344 343 340 337 334 332 330 327 326 325 323 321 319 316 314 311 309 309 307
203 216 196 213 234 91 51 30 17 13 15 11 10 4 356 359 3 8 28 51 86 99 353 245 257 307 336 337 335 329 316 305 298 299 301 310 320 328 336 337 335 336 332 328 330 338 341 335 326 324 324 324 327 333 337 344 350 353 354 354 354 355 355 355 355 354 353 351 348 344 341 340 338 334 331 329 328 325 322 320 316 313 311 310 311
209 233 220 234 236 183 117 26 14 3 8 19 17 357 357 3 13 29 40 51 85 176 193 213 251 261 322 356 10 19 3 337 321 315 312 316 320 324 329 331 331 333 332 329 329 340 350 349 342 340 342 339 335 337 341 347 352 354 355 354 354 354 354 354 354 354 354 354 352 350 348 347 346 343 341 339 339 336 332 328 322 318 315 313 316
240 259 264 239 219 207 202 30 11 2 8 23 21 4 6 8 16 37 44 39 55 189 215 239 247 208 276 345 359 5 348 335 328 328 326 322 320 318 320 325 327 327 324 323 325 333 346 350 346 346 349 350 347 343 344 351 354 354 353 353 353 352 352 353 353 352 351 351 351 349 349 350 349 350 350 351 352 351 349 343 334 331 323 316 321
254 258 250 236 221 209 220 2 358 8 10 11 15 13 13 7 10 35 46 43 49 47 223 216 207 176 59 323 317 323 326 328 328 330 331 328 323 320 324 327 324 320 318 319 326 330 334 338 337 338 341 344 346 345 346 352 354 353 352 352 353 355 357 357 355 353 351 349 348 346 347 348 349 351 354 357 0 1 359 355 347 342 333 324 328
252 254 241 237 239 236 274 310 329 350 345 343 1 14 12 11 16 36 49 50 47 35 74 143 127 114 65 335 328 326 316 318 321 318 323 323 317 314 322 327 319 314 319 322 325 326 324 323 323 327 330 332 334 337 340 346 350 351 352 352 354 358 1 358 355 354 351 349 347 346 346 346 347 348 354 359 3 6 3 359 354 348 346 344 335
246 253 245 240 246 254 278 292 296 313 319 320 346 17 17 26 33 40 51 53 45 37 40 222 281 144 61 355 353 346 321 322 329 321 323 321 313 304 302 308 311 310 316 321 321 320 318 316 318 323 325 327 328 328 328 331 336 342 347 350 352 357 357 354 354 354 353 351 349 347 347 347 346 345 351 358 3 7 5 3 358 353 357 357 343
240 248 246 245 252 259 272 279 286 299 298 300 334 19 28 40 43 42 48 49 45 40 33 301 251 203 63 26 82 17 334 331 338 332 337 335 329 324 307 301 308 308 307 314 317 317 315 315 320 327 329 329 329 327 326 325 327 334 343 348 352 355 353 351 353 355 355 354 351 348 347 349 348 346 350 357 1 4 6 7 1 356 3 0 354
232 242 246 249 256 262 266 266 283 293 270 277 334 6 28 37 40 38 42 45 42 47 57 62 91 152 55 128 350 6 242 304 332 332 350 3 18 32 23 351 334 321 315 324 328 324 322 329 330 331 331 330 332 334 336 335 334 337 345 352 356 355 352 352 355 358 359 1 0 355 351 353 351 350 354 356 358 1 5 10 6 0 4 1 1
227 238 243 245 253 260 260 261 272 279 259 282 318 267 38 33 35 34 40 43 40 60 78 73 72 58 37 19 315 292 245 309 339 318 338 13 43 45 40 14 2 0 358 356 355 352 349 349 345 342 340 338 342 348 351 351 349 348 351 358 359 355 354 357 0 3 6 8 7 4 4 4 359 359 2 358 358 360 3 10 10 5 6 5 8
226 235 239 239 249 256 255 258 256 250 251 267 291 242 207 34 30 32 40 43 42 58 66 60 61 51 41 37 13 280 260 319 231 309 335 349 7 9 2 2 5 18 13 6 4 3 359 355 349 349 353 354 353 350 351 357 1 358 358 360 356 352 357 3 4 7 10 12 9 10 16 17 13 10 5 360 1 1 1 8 12 9 8 11 14
226 232 235 235 247 255 253 256 246 233 241 253 275 259 229 264 12 30 36 33 37 47 47 44 52 50 45 44 37 34 350 331 301 330 69 265 336 350 346 353 3 19 13 8 4 360 356 357 354 355 5 5 356 349 352 0 1 357 359 358 354 356 5 8 6 9 15 15 11 15 23 22 18 14 4 2 4 3 1 5 11 12 11 15 18
226 227 226 230 244 254 254 256 250 238 239 244 261 266 234 238 300 351 358 7 18 31 36 41 54 53 43 40 38 34 19 6 351 341 80 212 305 314 333 345 351 357 3 4 4 1 357 1 6 14 20 14 3 358 1 3 357 355 358 359 2 7 8 8 8 12 17 17 17 22 25 19 15 9 2 3 5 5 4 3 7 12 13 17 23
225 219 219 228 242 253 254 254 253 247 244 241 249 263 237 226 258 290 294 330 349 358 14 32 46 44 30 29 32 25 7 359 353 333 327 315 278 280 318 336 334 340 358 4 1 0 1 7 16 21 20 16 11 9 12 13 5 3 6 6 10 8 4 5 8 9 11 14 17 20 18 13 9 4 357 358 4 8 8 3 4 10 13 19 25
222 220 224 233 241 249 254 251 248 245 244 245 250 260 247 235 252 264 273 309 323 314 318 357 21 23 17 16 22 22 9 339 336 329 311 298 295 294 317 331 316 322 351 5 7 13 18 17 21 24 20 16 15 16 20 22 16 13 12 10 6 2 1 5 6 4 3 6 10 11 10 7 5 4 2 4 11 15 13 6 2 6 12 18 26
224 226 231 236 240 246 250 246 240 239 244 252 255 258 253 246 253 257 270 301 304 288 272 289 337 359 6 3 3 14 12 353 342 336 320 310 314 304 318 337 323 321 350 6 15 28 32 28 29 30 24 17 16 18 18 18 13 8 5 2 360 359 2 4 4 3 0 0 4 4 2 4 5 9 14 16 17 17 15 10 2 2 9 17 24
228 230 235 238 242 247 251 245 237 238 244 254 261 266 265 253 252 259 271 287 293 284 260 267 311 336 355 1 358 348 353 351 344 341 335 321 324 323 329 337 316 321 349 3 10 24 33 34 35 31 26 22 21 21 20 16 10 3 359 358 1 4 6 8 7 6 5 4 3 359 358 2 5 7 8 10 11 10 10 11 5 359 6 15 22
232 234 239 242 245 250 252 248 242 241 244 252 261 268 269 263 262 268 271 277 282 278 272 277 291 314 336 349 347 333 327 332 337 342 343 332 328 330 336 335 317 323 345 353 358 9 20 26 34 31 25 24 24 26 26 21 16 11 8 7 10 13 16 17 16 15 14 11 5 359 357 358 0 360 357 358 3 3 4 10 7 359 5 14 19
239 242 245 246 250 254 254 250 245 243 244 251 259 263 266 267 270 271 268 269 274 271 274 282 282 288 309 324 330 327 318 316 325 336 340 335 333 329 329 337 332 335 341 342 349 356 359 8 22 27 20 18 23 28 25 20 20 20 20 22 23 24 23 19 16 13 9 5 0 355 353 352 352 353 352 352 357 360 1 9 8 3 9 15 17
245 246 249 252 255 257 256 251 246 246 248 252 257 260 262 264 268 268 263 263 269 271 276 286 286 285 297 309 315 319 319 312 307 319 332 333 334 329 323 328 348 339 331 331 343 348 348 353 3 11 12 14 20 25 20 18 26 32 34 36 32 27 21 13 6 1 357 354 352 349 348 347 345 348 350 352 356 1 6 12 12 12 18 19 20
248 249 252 255 257 256 254 249 246 250 253 254 256 261 263 265 264 263 261 260 266 271 273 277 284 292 301 305 304 306 308 303 289 286 306 320 326 324 317 314 301 290 301 322 318 305 329 343 344 352 3 10 17 19 18 25 38 41 36 32 26 21 15 8 0 354 350 348 346 346 347 348 348 351 355 357 1 8 15 17 18 22 29 28 26
250 252 254 254 256 256 252 249 250 253 255 256 258 261 262 265 264 261 261 261 262 266 264 265 275 285 295 298 296 294 293 288 280 267 275 302 317 319 316 307 288 261 241 255 300 283 308 333 338 343 354 3 13 15 19 34 40 33 25 19 15 12 8 3 357 352 349 349 350 352 355 358 0 3 4 3 5 13 18 16 18 26 41 48 35
249 253 255 254 256 256 253 252 254 255 257 259 259 259 260 263 263 259 260 263 265 266 262 263 270 276 284 289 284 283 288 281 272 273 283 301 312 316 315 304 290 274 253 239 248 284 296 317 333 345 351 356 6 10 15 28 25 17 14 10 8 5 0 357 354 351 354 357 0 5 10 16 19 23 26 24 19 16 12 9 11 24 54 75 50
250 253 253 253 254 254 253 254 256 256 255 257 256 256 261 263 262 259 259 261 264 269 269 268 274 278 283 285 279 277 284 279 272 276 285 297 302 303 304 298 287 276 261 240 231 276 296 309 325 341 349 350 357 3 5 10 9 7 6 5 4 2 357 354 354 359 6 9 13 21 29 36 39 41 42 40 36 29 17 6 6 26 71 88 65
251 252 252 252 253 253 253 254 257 255 253 255 253 253 259 263 261 259 259 259 263 269 271 268 271 280 286 286 277 270 270 270 270 273 279 288 289 285 283 284 281 275 265 250 243 272 299 314 325 335 343 346 352 357 357 357 357 358 0 2 5 5 359 357 4 15 21 24 29 38 46 47 46 43 40 38 39 37 30 23 26 52 81 88 74
249 252 252 253 254 254 255 256 256 255 253 254 252 251 257 261 260 260 261 262 266 270 269 265 266 274 283 285 275 265 267 271 275 279 282 286 288 287 283 280 281 280 274 265 254 262 290 308 320 330 338 342 349 354 353 353 352 352 357 3 9 10 7 9 21 30 32 37 43 47 48 45 40 38 36 34 33 35 38 42 54 74 83 83 77
249 254 255 256 257 258 261 260 257 256 255 256 255 254 257 260 261 262 262 264 267 269 269 268 268 272 279 284 283 275 274 278 281 283 285 287 288 287 287 283 278 279 282 276 263 260 279 298 310 323 333 339 345 350 351 349 349 352 359 6 11 15 19 22 30 36 39 46 48 44 39 36 34 36 37 34 31 29 32 39 51 65 73 78 82
250 255 257 258 260 261 264 264 261 259 259 259 259 258 257 258 260 262 262 264 266 269 271 271 271 273 278 284 286 283 281 283 284 285 285 288 288 283 282 280 273 273 282 284 275 269 272 282 296 314 327 335 341 347 348 347 350 358 4 8 12 18 27 29 28 34 41 47 46 40 33 31 31 35 38 38 35 31 28 29 35 45 56 67 81
251 255 257 259 260 261 263 265 264 264 263 263 263 260 258 258 261 264 266 266 266 267 269 271 274 277 280 283 284 284 285 285 284 285 285 285 284 280 278 278 274 271 275 283 286 281 274 275 286 305 321 329 337 347 350 350 355 1 3 7 14 20 26 30 27 30 39 42 40 37 32 31 35 41 44 42 40 38 35 32 31 33 43 56 70
249 251 255 258 260 262 264 267 268 269 268 266 264 262 261 263 265 268 269 268 268 267 267 270 274 278 281 283 284 284 283 284 283 282 282 283 281 278 277 278 277 272 272 279 285 285 282 279 283 298 315 324 333 345 355 359 2 3 359 2 13 23 27 29 27 31 41 43 39 39 37 40 47 52 52 49 47 46 44 42 40 39 41 48 61
249 252 257 260 263 265 267 269 272 274 272 268 265 263 263 264 267 270 271 269 267 266 267 269 274 278 282 284 284 284 282 282 283 280 279 281 280 275 273 275 274 271 274 280 280 279 277 274 276 292 309 321 332 342 353 3 4 5 3 360 5 18 27 32 27 30 42 44 38 42 48 55 60 60 59 57 53 50 49 48 47 46 46 48 52
252 257 262 265 267 269 270 272 274 275 274 270 267 266 266 267 268 269 269 267 265 264 266 269 274 279 282 283 284 284 282 280 279 277 276 277 276 273 271 270 268 268 275 279 275 267 261 261 273 289 302 314 329 339 349 0 0 1 2 357 355 5 19 34 34 30 37 41 36 40 49 57 60 61 63 61 55 52 51 50 49 48 48 51 52
257 265 268 269 270 271 272 272 273 272 273 272 272 272 271 271 271 271 269 265 262 262 264 267 270 274 277 281 282 283 282 279 275 272 271 268 266 267 270 268 264 264 270 272 263 249 245 254 269 282 292 307 328 341 350 1 358 351 351 351 351 358 7 30 46 32 30 37 37 39 44 50 56 60 62 59 53 50 50 49 48 47 47 49 52
263 268 270 269 271 273 273 272 272 270 271 273 276 277 275 273 272 272 270 266 261 261 264 266 269 271 273 275 277 278 279 276 270 265 263 263 264 269 274 272 268 265 265 263 252 243 243 250 260 270 282 301 321 337 344 345 340 339 344 346 346 351 358 16 42 31 25 31 37 39 40 44 54 60 61 59 53 48 47 46 46 45 45 44 46
263 264 264 265 266 269 272 272 273 274 274 275 275 275 275 274 271 269 268 265 261 262 265 267 270 273 273 273 272 273 272 269 264 257 255 260 264 270 275 276 276 272 266 262 255 247 244 243 249 256 265 286 303 313 318 320 324 332 339 339 336 341 352 2 15 17 19 26 35 39 37 38 53 65 63 60 56 49 45 43 41 41 42 43 44
254 249 247 252 255 260 265 268 272 277 280 281 281 279 279 277 272 267 264 262 261 263 265 268 271 273 273 272 271 270 268 264 258 253 252 257 264 269 273 274 275 270 263 259 255 248 243 240 243 247 251 270 285 287 295 307 314 323 330 329 325 327 337 345 6 21 19 22 30 39 37 34 50 70 67 62 59 53 44 38 37 39 42 45 48
245 241 241 247 252 255 260 266 272 276 281 284 286 287 284 279 272 266 262 260 262 264 267 269 271 273 275 274 270 267 264 258 253 251 251 257 265 272 275 275 274 268 259 253 248 244 242 241 244 247 248 261 274 277 283 295 307 316 321 320 316 315 320 334 49 51 31 20 24 38 41 35 49 72 70 65 64 57 45 37 37 42 48 53 56
226 233 239 242 246 253 260 269 276 278 279 279 278 278 277 273 268 263 261 262 264 267 270 272 273 274 275 275 272 266 259 252 249 248 249 255 262 268 274 276 274 267 257 249 244 241 241 243 247 251 252 260 273 278 279 287 301 310 311 308 305 301 289 129 112 79 40 21 19 32 43 37 50 73 72 68 68 60 48 42 45 52 61 63 63
236 237 240 240 242 257 271 284 296 295 290 284 280 277 273 269 265 261 261 263 265 269 271 272 275 277 277 279 277 269 259 250 246 245 247 253 259 263 268 270 267 261 253 245 241 239 240 243 246 250 253 261 269 272 277 288 300 305 300 293 287 240 146 134 132 102 43 22 18 38 53 40 48 72 73 70 70 60 50 49 55 62 66 66 64
265 265 259 252 246 250 252 256 274 288 290 284 279 277 275 273 270 267 265 266 268 271 273 274 280 285 285 285 281 269 258 253 250 248 250 255 258 259 259 257 253 249 244 239 237 236 237 241 243 246 251 258 264 270 279 287 293 294 281 246 171 149 138 129 130 105 53 28 29 60 69 44 40 64 75 69 64 56 51 54 61 66 64 63 61
264 277 278 275 268 265 263 261 262 269 276 275 272 272 273 274 276 276 275 275 274 275 276 278 282 286 286 283 275 264 257 253 249 250 255 258 257 254 247 240 237 238 239 239 239 237 236 238 241 244 248 252 261 270 272 263 259 252 209 164 146 145 140 125 123 109 67 42 47 78 76 50 39 50 75 74 60 52 51 54 59 64 61 58 56
265 270 276 283 283 270 259 256 257 259 265 270 272 275 276 280 285 288 289 288 286 283 281 281 282 284 283 279 271 262 256 248 241 245 251 253 251 248 240 229 226 232 239 242 239 236 236 237 239 244 248 253 261 263 250 231 219 207 188 170 156 150 134 114 126 127 88 56 60 88 85 64 53 50 63 80 60 52 53 53 53 57 56 52 50
254 258 265 266 249 229 229 241 254 263 270 277 282 285 286 287 290 291 291 290 288 285 284 285 285 284 280 275 267 260 252 243 237 242 244 242 241 239 233 226 224 230 239 240 235 232 234 236 240 246 249 255 257 245 228 217 204 185 170 160 155 144 117 108 124 139 113 61 60 89 89 74 66 58 54 67 63 52 56 56 52 51 51 46 43
Height
861 862 863 863 864 865 865 865 865 865 865 865 865 864 864 864 864 863 863 862 862 861 861 861 861 861 861 861 861 861 861 861 860 860 860 861 861 861 861 861 861 862 862 862 861 861 861 860 860 859 859 858 857 857 856 856 855 854 853 853 852 851 851 850 850 849 849 849 849 849 849 848 846 844 842 840 839 837 837 836 835 834 833 832 830
863 863 864 865 865 866 866 866 866 866 866 865 865 865 865 864 864 864 863 863 862 862 861 861 861 861 861 861 861 861 861 861 861 861 861 861 862 862 862 862 862 862 862 862 862 861 861 861 860 859 859 858 857 857 856 856 855 854 854 853 852 851 850 850 849 849 848 848 848 848 848 847 846 845 843 841 840 838 837 835 834 833 831 830 829
864 864 865 865 866 866 866 867 867 866 866 866 866 866 865 865 864 864 864 863 862 862 862 862 862 862 861 862 862 862 862 862 862 862 862 862 862 862 863 863 863 863 863 862 862 862 861 861 860 860 859 858 858 857 856 856 855 855 854 853 852 851 850 850 849 848 848 847 847 847 846 846 845 844 843 842 840 838 837 835 833 831 829 828 826
864 865 866 866 866 867 867 867 867 867 867 867 866 866 866 866 865 865 864 863 863 862 862 862 862 862 862 862 862 862 862 862 862 862 863 863 863 863 863 863 863 863 863 862 862 862 861 861 860 860 859 859 858 857 857 856 856 855 854 853 852 852 851 850 849 848 848 847 847 846 846 845 844 843 842 840 839 837 836 834 832 830 828 826 824
865 865 866 866 867 867 867 867 867 867 867 867 867 867 866 866 866 865 864 863 863 862 862 862 862 862 863 863 863 863 863 863 863 863 863 864 864 864 864 864 864 863 863 863 863 862 862 861 861 860 860 859 858 858 857 856 856 855 854 853 853 852 851 850 849 848 847 847 846 845 845 844 843 841 840 839 837 836 834 832 830 828 827 824 822
865 866 866 867 867 867 867 867 867 867 867 867 867 867 867 867 866 865 865 863 863 862 862 862 863 863 863 863 863 864 864 864 864 864 864 864 864 864 864 864 864 864 864 863 863 862 862 862 861 861 860 859 859 858 857 856 856 855 854 853 852 851 850 849 848 847 847 846 845 844 843 842 841 840 838 837 835 834 832 830 828 827 825 823 821
866 866 866 867 867 868 868 868 868 868 868 868 868 868 867 867 866 866 865 864 863 863 863 863 863 863 864 864 864 864 864 865 865 865 865 865 865 865 865 865 864 864 864 863 863 863 862 862 861 861 860 860 859 858 857 856 855 855 854 853 852 851 850 849 848 847 846 845 844 843 842 840 839 838 836 835 833 832 830 828 827 825 823 821 820
866 866 867 867 868 868 868 868 868 868 868 868 868 868 868 868 867 866 865 864 864 864 864 864 864 864 864 864 864 865 865 865 865 865 865 865 865 865 865 865 864 864 864 864 863 863 862 862 861 861 860 860 859 858 857 856 855 854 853 852 851 850 849 848 847 846 845 844 843 841 840 839 838 836 835 833 831 830 828 827 825 823 821 819 818
866 867 867 868 868 869 869 869 869 869 869 869 869 869 869 868 867 866 865 864 864 864 864 864 865 865 865 865 865 865 865 865 865 865 866 866 865 865 865 865 865 864 864 864 863 863 862 862 861 861 860 860 859 858 857 856 855 854 853 852 851 850 848 847 846 845 844 843 841 840 839 838 836 835 833 832 830 828 826 825 823 821 820 818 817
866 867 867 868 869 869 869 869 870 870 870 870 869 869 869 868 867 866 866 865 865 865 865 865 865 865 865 865 865 865 865 865 865 866 866 865 865 865 865 865 865 864 864 864 863 863 862 862 861 861 860 860 859 858 857 856 855 854 853 852 850 849 848 847 846 845 843 842 841 839 838 837 835 834 832 830 828 826 825 823 821 820 818 817 815
867 867 868 869 869 870 870 870 870 870 870 870 870 870 869 869 868 867 866 866 865 865 866 866 866 866 866 866 866 865 866 866 866 866 865 865 865 865 865 865 864 864 864 864 863 863 862 862 861 861 860 859 859 858 857 856 855 853 852 851 850 849 848 847 845 844 843 841 840 838 837 836 834 833 831 829 827 825 823 821 820 818 817 815 814
867 868 868 869 869 870 870 870 870 870 870 870 870 870 869 869 868 867 867 866 866 866 866 866 866 866 866 866 866 866 866 866 866 865 865 865 865 865 865 865 864 864 864 864 863 863 862 862 861 861 860 859 859 858 857 856 854 853 852 851 850 849 848 846 845 844 842 841 839 838 836 835 833 832 830 828 826 824 822 820 818 816 815 814 813
868 868 869 869 870 870 871 871 871 871 871 871 871 870 870 869 868 868 867 867 867 866 866 866 866 866 866 866 866 866 866 866 866 865 865 865 864 865 864 864 864 864 864 864 863 863 862 862 861 861 860 859 858 857 856 855 854 853 852 851 850 849 847 846 845 843 842 840 838 837 835 834 833 831 829 828 825 823 821 819 817 815 814 813 812
868 869 869 870 870 871 871 871 871 871 871 871 871 870 870 870 869 869 868 868 867 867 867 867 867 867 867 867 867 866 866 865 865 865 865 865 864 864 864 864 864 864 864 863 863 863 862 861 861 861 860 859 858 857 856 855 854 853 852 851 850 848 847 846 844 843 841 839 838 836 835 833 831 830 829 827 825 823 821 818 816 814 813 812 811
868 869 869 870 871 871 871 872 872 872 872 872 871 871 870 870 869 869 869 868 868 867 867 867 867 867 867 869 869 868 867 865 865 865 865 864 864 864 864 864 864 864 863 863 863 862 862 861 861 860 860 859 858 857 856 855 854 853 852 851 850 848 847 845 844 842 840 839 837 835 833 832 830 829 828 826 825 823 820 818 816 814 812 811 811
868 869 869 870 871 871 872 872 872 872 872 872 871 871 871 871 870 870 869 869 869 868 868 868 868 868 869 870 870 871 872 868 865 865 864 864 863 863 864 864 864 863 863 862 862 861 861 860 860 859 859 858 857 857 856 855 854 853 852 851 849 848 846 845 843 842 840 838 836 834 832 830 829 827 826 826 824 822 820 818 816 814 812 811 810
868 869 869 870 871 871 872 872 872 872 872 872 872 872 871 871 871 870 870 869 869 869 868 868 868 868 869 870 871 873 873 869 866 866 864 864 864 863 864 864 863 863 862 862 861 860 860 860 859 859 858 858 857 856 855 854 853 852 851 850 849 847 846 844 843 841 839 837 835 833 830 829 827 826 825 825 824 822 820 818 816 814 812 811 810
868 869 869 870 871 871 872 872 872 872 872 872 872 872 872 872 871 871 870 870 870 870 869 869 869 869 868 869 870 871 870 868 869 869 866 864 864 864 864 864 863 863 862 862 861 860 860 859 859 858 858 857 856 856 855 854 853 852 851 850 848 847 846 844 843 841 839 837 835 832 830 828 827 825 825 824 823 822 820 818 816 814 812 811 810
868 869 869 870 871 871 871 872 872 872 872 872 872 872 872 872 872 871 871 871 870 870 870 870 869 869 869 868 868 868 868 868 869 870 869 867 865 864 864 864 863 863 862 862 861 860 860 859 859 858 857 857 856 855 854 853 852 851 850 849 848 847 845 844 843 841 839 837 835 832 830 828 827 825 824 824 822 821 819 818 816 814 812 811 810
868 869 869 870 871 871 871 872 872 872 872 872 872 872 872 872 872 872 871 871 871 871 871 870 870 870 869 869 868 868 868 868 868 868 870 870 867 864 864 864 863 863 863 862 861 860 860 859 858 858 857 856 855 854 853 852 852 851 850 849 847 846 845 844 842 841 839 837 834 833 831 829 827 826 825 823 822 821 819 818 816 814 813 811 810
868 869 869 870 871 871 871 872 872 872 872 872 872 872 872 872 872 872 872 871 871 871 871 871 870 870 869 869 868 868 868 868 868 867 868 870 869 866 864 864 863 863 863 862 861 860 860 859 858 858 857 856 855 854 853 852 851 850 849 848 847 846 845 843 842 840 839 836 834 833 831 829 828 826 825 823 822 820 819 817 816 815 813 812 810
867 868 869 870 871 871 871 871 872 872 872 872 872 872 872 872 872 872 872 872 871 871 871 871 870 870 870 869 869 868 868 868 868 868 867 868 868 866 865 864 863 862 862 862 861 860 860 859 858 858 857 856 855 854 853 852 851 850 849 848 847 846 844 843 841 840 838 836 835 833 831 830 828 826 824 823 821 820 819 817 816 815 813 812 811
867 868 869 869 870 870 871 871 871 871 872 872 872 872 872 872 872 872 872 871 871 871 871 871 870 870 869 869 869 868 868 868 868 868 867 867 867 866 865 864 864 863 862 861 861 860 860 859 858 858 857 856 855 854 853 851 850 850 849 848 846 845 844 842 841 839 838 836 835 833 832 830 827 826 824 823 821 820 819 817 816 815 814 812 811
866 867 868 869 869 870 870 870 871 871 871 871 872 872 872 872 871 871 871 871 871 871 871 870 870 870 869 869 869 868 868 868 868 868 867 867 867 867 865 865 864 863 862 861 861 860 860 859 859 858 857 856 855 854 852 851 850 849 848 847 846 845 843 842 840 839 838 836 835 833 831 829 827 826 824 823 822 820 819 817 816 815 814 813 812
865 866 867 868 869 869 869 869 870 870 871 871 871 871 871 871 871 871 871 871 871 871 870 870 870 870 869 869 869 868 868 868 868 868 867 867 867 866 866 865 865 863 862 862 861 861 860 859 859 858 857 856 855 854 852 851 850 849 848 847 846 844 843 841 840 838 837 835 834 833 831 829 828 826 824 823 822 820 819 817 816 815 814 813 812
864 865 866 867 868 868 869 869 869 869 870 870 870 871 871 870 870 870 870 870 870 870 870 870 870 869 869 869 869 868 868 868 868 868 867 867 867 867 866 865 864 863 862 862 861 861 860 859 859 858 857 856 855 853 852 851 849 848 848 846 845 844 842 841 840 838 837 835 834 832 830 829 827 826 824 823 821 820 819 817 816 815 814 813 813
863 865 866 866 867 868 868 868 868 869 869 869 869 870 870 870 870 870 870 870 870 870 870 870 870 869 869 869 868 868 868 868 868 867 867 867 867 867 866 866 866 864 863 862 861 861 860 859 859 858 857 856 855 853 852 851 850 848 847 846 845 844 842 841 840 838 837 835 833 832 830 828 827 825 823 822 820 819 818 817 816 815 814 813 813
863 864 865 865 866 867 867 867 868 868 868 868 869 869 869 869 869 869 869 869 869 870 870 870 870 869 869 868 868 868 868 867 867 867 867 867 866 866 866 866 867 867 865 863 862 861 860 859 859 858 857 856 855 854 852 851 850 848 847 846 845 844 842 841 840 838 837 835 833 831 829 828 826 825 823 821 820 819 818 817 816 815 814 814 813
862 863 864 864 865 865 866 866 867 867 867 867 868 868 868 868 868 868 868 868 869 869 869 869 869 869 868 868 868 867 867 866 866 866 866 866 865 865 865 865 866 867 868 867 864 861 860 860 859 858 857 856 855 854 852 851 850 849 847 846 845 843 842 841 839 838 836 834 832 830 829 827 826 824 822 820 819 818 817 816 816 814 814 814 813
861 862 862 863 864 864 864 865 865 866 866 866 867 867 867 867 867 867 867 868 868 868 868 868 868 868 867 867 867 866 866 866 865 865 865 865 865 864 864 864 864 865 866 867 865 861 860 860 859 858 857 856 855 854 853 851 850 849 848 846 845 843 842 840 839 837 835 833 832 830 828 827 825 823 822 820 819 818 817 816 815 814 813 814 813
860 861 861 862 862 863 863 864 864 864 865 865 865 866 866 866 866 866 866 867 867 867 867 867 867 867 866 866 866 866 865 865 865 865 864 864 864 864 864 863 863 863 863 864 864 861 860 859 858 858 857 856 855 854 853 852 850 849 848 846 844 843 841 840 838 836 834 833 831 830 828 827 825 823 822 820 819 818 817 816 815 814 813 814 813
859 859 860 860 861 861 862 862 862 863 863 863 864 864 864 864 865 865 865 865 865 865 866 866 866 866 865 865 865 865 865 864 864 864 864 863 863 863 863 863 862 862 862 862 863 860 859 859 858 857 856 856 855 853 852 851 850 849 847 846 844 842 841 839 838 836 834 833 831 830 829 827 825 824 822 820 819 818 817 816 815 814 813 814 814
857 858 858 859 859 860 860 861 861 861 861 862 862 862 863 863 863 864 864 864 864 864 864 865 865 865 864 864 864 864 863 863 863 863 863 863 862 862 862 862 861 861 861 861 861 859 858 858 857 857 856 855 854 853 851 850 849 848 847 845 844 842 840 839 837 836 834 833 832 830 829 827 826 824 822 821 819 818 817 815 814 814 814 814 814
856 856 857 857 858 859 859 859 860 860 860 860 861 861 861 862 862 862 863 863 863 863 863 863 863 863 863 862 862 862 862 862 862 862 862 862 861 861 861 860 860 860 860 860 859 858 857 856 856 856 855 854 853 852 851 849 848 847 846 845 844 842 840 839 837 836 835 834 832 831 830 828 826 825 823 821 819 818 817 816 815 814 814 814 814
854 855 856 856 857 857 858 858 858 859 859 859 860 860 860 860 860 861 861 861 862 862 862 862 862 862 861 861 861 861 861 861 861 860 860 860 860 860 860 859 859 859 859 859 858 858 857 856 855 855 854 854 852 851 850 849 848 847 846 845 844 842 840 839 838 837 835 834 833 832 830 828 827 825 824 822 820 819 818 817 816 815 814 814 814
853 854 854 855 856 856 856 857 857 858 858 858 859 859 859 859 859 859 860 860 860 860 860 860 860 860 860 860 860 860 860 859 859 859 859 859 858 858 858 858 857 857 857 857 857 856 856 855 855 854 854 853 852 851 850 849 848 847 846 845 844 842 841 840 838 837 836 835 834 832 831 829 828 826 824 823 821 819 818 817 816 815 815 815 814
851 852 853 854 854 855 855 856 856 857 857 857 858 858 858 858 858 858 859 859 859 859 859 859 859 859 858 858 858 858 858 858 858 858 857 857 857 857 856 856 856 856 855 855 855 855 855 854 854 853 853 852 851 850 849 848 848 846 845 845 844 842 841 840 839 838 837 835 834 833 831 829 828 826 825 823 822 820 819 818 817 816 815 815 815
850 851 852 852 853 854 854 854 855 855 856 856 856 857 857 857 857 858 858 858 858 857 857 857 857 857 857 857 857 857 857 856 856 856 856 856 855 855 855 855 854 854 854 854 854 853 853 853 853 852 852 851 850 850 849 848 847 846 845 844 844 843 841 840 839 838 837 836 835 833 831 830 829 827 826 824 823 821 819 818 817 816 816 815 815
848 849 850 851 852 852 853 853 853 854 854 855 855 855 856 856 856 856 856 857 857 856 856 856 856 856 855 855 855 855 855 854 854 854 854 854 854 853 853 853 853 852 852 852 852 852 852 852 852 851 851 850 849 849 848 847 846 846 844 843 843 842 841 840 840 839 838 837 836 834 833 831 830 828 827 825 824 822 821 819 818 817 816 816 815
847 848 848 849 850 851 851 851 852 852 852 853 853 853 854 854 855 855 855 855 855 855 855 855 855 854 854 854 854 853 853 853 853 852 852 852 852 851 851 851 851 851 851 850 850 850 850 850 850 850 849 849 848 847 847 846 845 845 844 844 843 843 842 841 840 839 838 837 836 835 833 832 831 829 827 826 825 824 822 820 819 818 817 817 816
845 846 847 848 848 849 849 849 850 850 850 850 851 851 852 852 853 853 853 853 853 853 853 853 853 853 852 852 852 852 851 851 851 851 850 850 850 850 850 850 849 849 849 849 848 848 848 848 848 848 848 847 847 846 846 845 845 844 844 843 843 842 842 841 840 839 838 837 836 835 834 833 832 830 829 828 827 825 823 822 821 820 819 818 817
844 845 846 846 847 847 847 848 848 848 848 849 849 849 849 850 850 851 851 851 851 851 851 851 851 851 851 851 850 850 850 849 849 849 849 849 848 848 848 848 848 848 847 847 847 847 847 846 846 846 846 845 845 845 845 845 844 844 843 843 842 842 841 840 839 839 838 837 837 836 835 834 833 832 830 829 828 827 825 824 823 822 820 819 818
843 844 844 845 845 846 846 846 847 847 847 847 847 847 847 847 848 848 848 849 849 849 849 849 849 849 849 849 848 848 848 847 847 847 846 846 846 846 846 846 846 845 845 845 845 845 845 844 844 845 844 844 844 844 844 843 843 843 842 842 841 841 840 840 839 839 838 837 837 836 835 834 834 833 831 831 830 828 827 826 825 823 822 820 819
841 842 843 844 844 845 845 845 846 845 845 845 845 845 845 845 846 846 846 847 847 847 847 847 847 846 846 846 846 846 846 845 845 845 845 845 845 844 844 844 844 843 843 843 843 843 843 843 843 843 843 842 842 842 842 842 842 841 841 841 840 840 840 839 839 839 838 838 837 836 835 835 834 833 832 832 831 830 829 828 826 825 823 822 821
840 841 842 842 843 843 844 844 845 844 844 844 844 844 843 843 844 844 844 844 845 845 844 844 844 844 844 843 843 843 843 843 843 843 843 843 843 843 842 842 841 841 841 841 841 841 841 841 841 841 841 841 841 841 841 841 840 840 839 839 839 839 839 839 839 839 839 838 837 836 836 835 834 833 833 832 832 831 830 829 827 826 825 823 822
839 840 840 841 842 842 843 843 844 843 843 843 842 842 842 841 842 842 842 842 842 842 842 842 842 841 841 841 840 840 841 840 840 840 841 841 841 840 840 840 840 839 839 839 839 839 839 839 839 839 839 839 839 839 839 839 839 839 838 838 837 837 837 838 838 838 838 838 837 837 836 836 835 834 834 833 832 831 831 830 829 827 826 825 824
837 837 838 839 841 842 842 843 844 843 843 842 842 841 840 840 840 840 840 840 840 840 840 840 840 839 839 838 838 838 838 838 838 838 838 838 838 838 838 838 838 838 837 837 837 837 837 837 838 838 838 838 838 838 838 838 838 838 837 836 836 836 836 837 837 838 838 837 837 837 837 836 835 835 834 834 833 832 832 831 830 828 827 826 825
838 838 839 840 841 841 841 841 842 842 842 841 841 840 840 839 839 839 838 838 838 838 837 837 837 837 836 836 835 836 837 838 838 838 837 836 836 836 836 836 836 837 837 836 836 836 836 836 836 836 836 836 836 836 836 837 837 836 836 835 835 835 836 836 837 837 837 837 837 836 837 837 836 835 835 835 834 833 832 832 831 830 828 827 826
837 838 838 840 840 840 839 839 840 840 840 839 839 839 838 838 837 837 837 836 836 836 835 834 834 834 833 833 833 833 834 835 836 837 836 835 835 834 834 834 835 835 836 836 835 835 835 835 835 835 835 835 835 835 835 835 835 835 835 835 835 835 835 836 836 837 837 837 836 836 837 837 836 836 836 835 834 834 833 832 832 831 830 828 827
834 835 836 837 838 838 838 838 838 838 838 838 838 838 837 837 836 836 836 835 835 834 833 832 832 831 831 831 831 830 831 831 832 832 833 833 833 832 832 832 832 833 834 834 834 834 834 834 834 834 834 834 834 834 834 834 834 834 834 835 835 835 835 835 835 836 836 836 836 836 836 837 836 835 835 835 834 834 834 833 832 831 830 829 828
833 833 833 835 836 837 837 837 836 836 837 837 837 836 836 836 835 835 835 834 833 832 831 830 830 829 829 829 829 828 828 827 827 828 828 829 829 829 830 831 831 831 832 833 833 833 833 833 833 833 833 833 833 833 833 833 833 834 834 834 834 834 834 835 835 835 835 836 836 836 836 836 836 835 834 834 834 834 834 833 832 831 830 829 828